Powrót do katalogu

CZ-4 DEB

AktywnyPO
NORAD 20886·DEBRIS·🇨🇳 China

Wystrzelony Sep 3, 1990 z Taiyuan Satellite Launch Center

Loading…

Następne Przeloty (najbliższe 24 godziny)

TLE

ŚwieżeSource: Space-Track

Epoka: Sep 14, 2026, 05:21 UTC

1 20886U 90081AW  26257.22323348  .00000204  00000-0  29119-3 0  9992
2 20886  99.0343  31.1488 0242019 250.5924 231.0863 13.55792618774439

Śledź CZ-4 DEB w czasie rzeczywistym z AllMySat

Download on the App Store